Regional Weather Roundup
Issued by NWS Goodland, KS

Home | Current Version | Previous Version | Text Only | Print | Product List | Glossary Off
Versions: 1 2 3 4 5 6 7 8 9 10 11 12 13 14 15 16 17 18 19 20 21 22 23 24 25 26 27 28 29 30 31 32 33 34 35 36 37 38 39 40 41 42 43 44 45 46 47 48 49 50

000
ASUS43 KGLD 200359
RWRGLD

GOODLAND FORECAST AREA HOURLY WEATHER ROUNDUP
NATIONAL WEATHER SERVICE GOODLAND KS
1000 PM MDT FRI SEP 19 2014

...OFFICIAL OBSERVATIONS...

CITY           SKY/WX    TMP DP  RH WIND       PRES   REMARKS
GOODLAND KS    CLEAR     69  60  73 S13       29.95R
HILL CITY KS   CLEAR     75  59  57 S8        29.91R
IMPERIAL NEB   CLOUDY    75  59  57 S15       29.88S
MCCOOK NEB     MOCLDY    75  58  55 S10       29.88R
AKRON CO       CLOUDY    73  48  41 N12       30.02R
BURLINGTON CO  CLEAR     71  58  63 S12       29.98R
LIMON CO       CLEAR     55  41  59 N6        30.05R
$$

...UNOFFICIAL OBSERVATIONS...

CITY           SKY/WX    TMP DP  RH WIND       PRES   REMARKS
COLBY KS       CLEAR     73  63  68 S13       29.93S
GOVE KS          N/A     74  32  21 MISG        N/A
NORTON KS      CLEAR     73  55  53 S12G17    29.89R
SHARON SPRINGS   N/A     71  61  70 S10         N/A
WAKEENEY KS      N/A     74  54  48 MISG        N/A
TRENTON NEB      N/A     74  32  21 S9          N/A
KIT CARSON CO    N/A     72  59  63 N9          N/A
YUMA CO          N/A     69  51  53 CALM        N/A
$$


USA.gov is the U.S. government's official web portal to all federal, state and local government web resources and services.